[[{"header":{"parameterUnit":"m.s-1","parameterCategory":2,"la1":30.2991,"la2":30.254,"lo1":-89.0895,"lo2":-89.0444,"dy":0.0017,"dx":0.0017,"nx":28,"ny":28,"refTime":"2024-09-26T03:00:00:Z","depth":"0","parameterNumber":2,"parameterNumberName":"U-component_of_CURRENTS"},"data":[0,0,0,0,0,0,0,0,0,0,0,0,0,0,0,0,0,0,0,0,0,0,0,0,0,0,0,0,0,0,0,0,0,0,0,0,0,0,0,0,0,0,0,0,0,0,0,0,0,0,0,0,0,0,0,0,0,0,-0.2928,-0.2928,0,-0.2906,-0.2905,-0.2905,-0.2858,-0.2857,-0.2857,-0.2857,-0.2742,-0.274,-0.2737,0,0,0,0,0,0,0,0,0,0,0,0,0,-0.2823,-0.2825,-0.2928,-0.2928,-0.2929,-0.2907,-0.2905,-0.2904,-0.2858,-0.2857,-0.2857,-0.2857,-0.2743,-0.274,-0.2736,0,0,0,0,0,0,0,0,0,0,0,0,0,-0.2834,-0.2826,-0.2928,-0.2909,-0.2907,-0.2907,-0.2905,-0.2904,-0.2858,-0.2857,-0.2857,-0.2857,-0.2744,-0.274,-0.2736,-0.2716,0,0,-0.2723,-0.2721,0,0,0,0,0,0,0,0,-0.2834,-0.2837,-0.2911,-0.291,-0.2909,-0.2891,-0.2827,-0.2839,-0.2858,-0.2868,-0.2857,-0.2857,-0.2789,-0.2781,-0.2768,-0.2711,-0.2706,-0.2723,-0.272,-0.2718,-0.2717,0,0,0,0,0,0,0,-0.2833,-0.2838,-0.2911,-0.2912,-0.291,-0.2866,-0.2867,-0.2828,-0.2823,-0.2867,-0.2866,-0.2876,-0.2786,-0.2772,-0.2764,-0.2704,-0.2723,-0.2719,-0.2716,-0.2715,-0.267,-0.2672,0,0,0,0,0,0,-0.2859,-0.2838,-0.2912,-0.2911,-0.2879,-0.2869,-0.287,-0.2891,-0.2825,-0.2818,-0.2877,-0.2874,-0.2779,-0.2769,-0.276,-0.2761,-0.2718,-0.2714,-0.2712,-0.2669,-0.2671,-0.2672,0,0,0,0,0,0,-0.2857,-0.2866,-0.2913,-0.2879,-0.2883,-0.2873,-0.2895,-0.2891,-0.2885,-0.2835,-0.2824,-0.2878,-0.2779,-0.2766,-0.2736,-0.2755,-0.2712,-0.2708,-0.2667,-0.2669,-0.2671,-0.2745,0,0,0,0,0,0,-0.2854,-0.2865,-0.288,-0.2882,-0.2887,-0.2918,-0.2896,-0.2891,-0.2896,-0.2892,-0.2832,-0.2821,-0.2777,-0.2743,-0.2732,-0.2749,-0.2705,-0.2665,-0.2668,-0.2671,-0.2741,-0.2749,-0.2756,0,0,0,0,0,-0.285,-0.2879,-0.2881,-0.289,-0.291,-0.2919,-0.2916,-0.2901,-0.2896,-0.2893,-0.286,-0.2823,-0.2753,-0.274,-0.2727,-0.2743,-0.2664,-0.2667,-0.267,-0.2737,-0.2747,-0.2756,0,0,0,0,0,0,-0.2834,-0.2877,-0.288,-0.2918,-0.2921,-0.2914,-0.2916,-0.2912,-0.2883,-0.2877,-0.2828,-0.2814,-0.28,-0.2765,-0.2753,-0.2742,-0.2707,-0.2708,-0.2763,-0.2772,-0.278,-0.2774,-0.2701,0,0,0,0,0,-0.2843,-0.2875,-0.2898,-0.2923,-0.2933,-0.2927,-0.2928,-0.2919,-0.2903,-0.2891,-0.2853,-0.282,-0.2802,-0.2782,-0.2751,-0.2734,-0.2727,-0.2742,-0.275,-0.2757,-0.2746,-0.2748,-0.2755,-0.2682,-0.2682,-0.2682,0,0,-0.2846,-0.287,-0.289,-0.2921,-0.2922,-0.2939,-0.2924,-0.2932,-0.294,-0.2882,-0.2868,-0.2841,-0.2806,-0.2793,-0.2784,-0.2763,-0.2785,-0.2761,-0.2767,-0.2752,-0.2752,-0.2759,-0.2765,-0.2684,-0.2684,-0.2684,0,0,-0.2859,-0.2889,-0.2917,-0.2928,-0.2944,-0.2946,-0.2957,-0.2954,-0.2947,-0.2939,-0.291,-0.2891,-0.2855,-0.283,-0.2818,-0.285,-0.283,-0.2855,-0.288,-0.2883,-0.2889,-0.2894,-0.2942,-0.295,-0.2855,-0.2855,-0.2855,0,-0.286,-0.2898,-0.292,-0.2942,-0.2956,-0.2958,-0.2978,-0.2978,-0.2961,-0.2963,-0.2944,-0.2915,-0.2873,-0.2874,-0.288,-0.2866,-0.2881,-0.2846,-0.2893,-0.2897,-0.29,-0.2948,-0.2956,-0.2859,-0.2858,-0.2858,-0.2857,0,-0.2886,-0.2916,-0.2932,-0.297,-0.2984,-0.3,-0.3017,-0.302,-0.302,-0.302,-0.302,-0.2971,-0.2952,-0.2949,-0.2916,-0.293,-0.2942,-0.2907,-0.2867,-0.2912,-0.296,-0.2967,-0.2864,-0.2863,-0.2862,-0.2861,0,0,-0.2883,-0.2945,-0.2946,-0.2967,-0.2999,-0.3015,-0.3041,-0.3067,-0.3095,-0.3073,-0.31,-0.3059,-0.3038,-0.3021,-0.2988,-0.2978,-0.3022,-0.2952,-0.295,-0.2998,-0.3072,-0.2908,-0.29,-0.2998,-0.2999,-0.2999,-0.3114,0,-0.2891,-0.2939,-0.2969,-0.3007,-0.3032,-0.3055,-0.3088,-0.3109,-0.3124,-0.3147,-0.3121,-0.3127,-0.307,-0.3063,-0.3047,-0.3024,-0.3036,-0.2996,-0.3022,-0.3023,-0.2867,-0.2899,-0.2713,-0.2782,-0.3121,-0.3122,-0.3123,0,-0.2888,-0.2927,-0.297,-0.3035,-0.3052,-0.3075,-0.3129,-0.316,-0.3201,-0.3215,-0.3217,-0.3206,-0.3193,-0.3135,-0.3128,-0.3111,-0.3094,-0.3077,-0.3081,-0.2893,-0.2867,-0.2782,-0.2782,-0.2762,-0.3133,-0.3132,-0.3131,0,-0.2846,-0.2919,-0.2956,-0.2974,-0.3053,-0.3074,-0.3114,-0.3167,-0.32,-0.3251,-0.3273,-0.3279,-0.3266,-0.325,-0.3185,-0.3175,-0.3182,-0.3169,-0.3022,-0.3015,-0.2838,-0.281,-0.2803,-0.3169,-0.3168,-0.3168,-0.3168,0,-0.2825,-0.2848,-0.294,-0.2953,-0.3009,-0.3064,-0.3117,-0.3164,-0.3227,-0.3234,-0.3292,-0.327,-0.3285,-0.3274,-0.3237,-0.3135,-0.3226,-0.3025,-0.3014,-0.2862,-0.2836,-0.2791,-0.2812,-0.3172,-0.3171,-0.3171,-0.317,0,-0.2752,-0.2812,-0.2858,-0.2952,-0.2983,-0.3014,-0.3105,-0.3127,-0.3215,-0.3222,-0.3233,-0.3285,-0.3245,-0.3262,-0.3239,-0.317,-0.3039,-0.306,-0.2895,-0.2857,-0.2652,-0.2684,-0.2639,-0.2571,-0.2936,-0.2932,-0.2929,0,-0.2709,-0.273,-0.2839,-0.2852,-0.2885,-0.2949,-0.2972,-0.309,-0.3087,-0.3169,-0.313,-0.3163,-0.3074,-0.3044,-0.2943,-0.2894,-0.2901,-0.2717,-0.2619,-0.2601,-0.2633,-0.266,-0.2611,-0.2473,-0.2466,-0.2461,-0.2457,0,-0.2622,-0.267,-0.2705,-0.274,-0.2766,-0.2801,-0.2826,-0.2835,-0.2915,-0.2933,-0.2873,-0.2839,-0.2801,-0.263,-0.26,-0.2541,-0.2607,-0.2598,-0.2619,-0.2281,-0.2272,-0.2213,-0.2497,-0.2408,-0.2413,-0.2417,-0.2419,-0.2421,-0.2528,-0.2536,-0.257,-0.2582,-0.2606,-0.2555,-0.2502,-0.2521,-0.2493,-0.2429,-0.252,-0.2426,-0.2384,-0.2266,-0.2228,-0.2109,-0.2214,-0.2048,-0.2108,-0.2155,-0.1996,-0.2168,-0.2014,-0.2017,-0.2019,-0.2021,-0.2022,0,-0.2371,-0.2382,-0.2393,-0.2359,-0.2275,-0.2362,-0.2314,-0.2214,-0.2077,-0.2103,-0.2029,-0.1969,-0.182,-0.1852,-0.1743,-0.1664,-0.1663,-0.1666,-0.1697,-0.1684,-0.1862,-0.1739,-0.1465,-0.1465,-0.1465,-0.1465,-0.1465,-0.1465,-0.2278,-0.2219,-0.2223,-0.2014,-0.1975,-0.1799,-0.1724,-0.1638,-0.1612,-0.1501,-0.1503,-0.1568,-0.1606,-0.1658,-0.1547,-0.1479,-0.15,-0.1408,-0.1521,-0.1681,-0.1724,-0.1764,-0.1654,-0.1366,-0.1366,-0.1245,-0.1245,-0.1244]},{"header":{"parameterUnit":"m.s-1","parameterCategory":2,"la1":30.2991,"la2":30.254,"lo1":-89.0895,"lo2":-89.0444,"dy":0.0017,"dx":0.0017,"nx":28,"ny":28,"refTime":"2024-09-26T03:00:00:Z","depth":"0","parameterNumber":3,"parameterNumberName":"V-component_of_CURRENTS"},"data":[0,0,0,0,0,0,0,0,0,0,0,0,0,0,0,0,0,0,0,0,0,0,0,0,0,0,0,0,0,0,0,0,0,0,0,0,0,0,0,0,0,0,0,0,0,0,0,0,0,0,0,0,0,0,0,0,0,0,-0.1172,-0.117,0,-0.0973,-0.097,-0.0967,-0.0861,-0.0862,-0.0863,-0.0864,-0.0742,-0.0738,-0.0735,0,0,0,0,0,0,0,0,0,0,0,0,0,-0.1237,-0.1237,-0.1172,-0.117,-0.1169,-0.0974,-0.097,-0.0966,-0.0861,-0.0862,-0.0863,-0.0864,-0.0743,-0.0739,-0.0734,0,0,0,0,0,0,0,0,0,0,0,0,0,-0.1132,-0.1237,-0.1172,-0.11,-0.1092,-0.0974,-0.097,-0.0965,-0.0861,-0.0862,-0.0863,-0.0864,-0.0745,-0.0739,-0.0734,-0.0676,0,0,-0.0716,-0.0713,0,0,0,0,0,0,0,0,-0.1138,-0.1128,-0.1112,-0.1105,-0.1096,-0.0952,-0.0949,-0.0876,-0.0861,-0.0938,-0.0864,-0.0865,-0.0825,-0.0813,-0.0758,-0.067,-0.0665,-0.0715,-0.0712,-0.0709,-0.0707,0,0,0,0,0,0,0,-0.1146,-0.1135,-0.1083,-0.1111,-0.1101,-0.1002,-0.0989,-0.0932,-0.0872,-0.0932,-0.0926,-0.092,-0.082,-0.0763,-0.0755,-0.0663,-0.0715,-0.071,-0.0706,-0.0704,-0.0555,-0.0555,0,0,0,0,0,0,-0.1201,-0.1143,-0.1089,-0.1078,-0.1132,-0.1002,-0.0987,-0.0989,-0.087,-0.0856,-0.0919,-0.0916,-0.0773,-0.0761,-0.075,-0.069,-0.0709,-0.0704,-0.07,-0.0555,-0.0555,-0.0554,0,0,0,0,0,0,-0.1203,-0.1198,-0.1098,-0.1113,-0.1095,-0.1002,-0.1004,-0.0985,-0.0927,-0.0862,-0.0847,-0.0883,-0.0773,-0.0758,-0.0693,-0.0685,-0.0701,-0.0696,-0.0556,-0.0555,-0.0555,-0.0562,0,0,0,0,0,0,-0.1206,-0.12,-0.1208,-0.1118,-0.1097,-0.102,-0.1003,-0.098,-0.0927,-0.092,-0.0826,-0.0816,-0.0773,-0.0702,-0.0687,-0.0677,-0.0691,-0.0557,-0.0556,-0.0555,-0.0563,-0.0562,-0.0561,0,0,0,0,0,-0.1209,-0.1217,-0.121,-0.1203,-0.1116,-0.102,-0.0997,-0.0927,-0.0925,-0.0882,-0.0831,-0.0818,-0.0687,-0.0695,-0.0678,-0.0667,-0.0557,-0.0556,-0.0555,-0.0563,-0.0562,-0.0561,0,0,0,0,0,0,-0.1226,-0.1205,-0.1196,-0.1192,-0.1114,-0.1006,-0.0967,-0.0928,-0.0846,-0.0851,-0.0793,-0.0777,-0.0719,-0.0692,-0.0703,-0.0625,-0.0628,-0.0623,-0.064,-0.0638,-0.0638,-0.065,-0.0686,0,0,0,0,0,-0.1245,-0.1259,-0.1193,-0.1182,-0.1152,-0.1061,-0.1015,-0.0968,-0.0895,-0.0858,-0.08,-0.075,-0.0698,-0.067,-0.0615,-0.0561,-0.0535,-0.0551,-0.055,-0.055,-0.055,-0.0511,-0.0507,-0.0551,-0.0551,-0.0551,0,0,-0.1245,-0.124,-0.1242,-0.1189,-0.1124,-0.1066,-0.1031,-0.0963,-0.0914,-0.0862,-0.0782,-0.0738,-0.0682,-0.0621,-0.0596,-0.06,-0.0519,-0.0549,-0.0549,-0.0548,-0.051,-0.0505,-0.0502,-0.055,-0.0551,-0.0551,0,0,-0.125,-0.1247,-0.1253,-0.1195,-0.1127,-0.1067,-0.1055,-0.0952,-0.0905,-0.0825,-0.0788,-0.0735,-0.0649,-0.0601,-0.0572,-0.0536,-0.0515,-0.0536,-0.0539,-0.0502,-0.0498,-0.0495,-0.0437,-0.0428,-0.0539,-0.0539,-0.0539,0,-0.1253,-0.1257,-0.1225,-0.1196,-0.1159,-0.1077,-0.1039,-0.0962,-0.0852,-0.0826,-0.081,-0.0688,-0.0636,-0.0573,-0.0558,-0.0533,-0.0509,-0.0545,-0.0501,-0.0497,-0.0494,-0.0435,-0.0425,-0.0539,-0.0539,-0.0539,-0.0539,0,-0.1243,-0.1239,-0.1223,-0.1184,-0.1129,-0.1077,-0.0993,-0.0931,-0.0885,-0.0827,-0.0755,-0.0671,-0.0611,-0.0586,-0.0553,-0.0506,-0.0495,-0.0502,-0.0505,-0.049,-0.0429,-0.0418,-0.054,-0.054,-0.054,-0.054,0,0,-0.1264,-0.1236,-0.1228,-0.1218,-0.1126,-0.1079,-0.1007,-0.0925,-0.0902,-0.0796,-0.076,-0.065,-0.0626,-0.0591,-0.0547,-0.0505,-0.0438,-0.0497,-0.0495,-0.0441,-0.0345,-0.026,-0.024,-0.0449,-0.0448,-0.0447,-0.0306,0,-0.126,-0.1253,-0.1225,-0.1178,-0.1155,-0.1075,-0.1023,-0.0945,-0.0881,-0.082,-0.0733,-0.0678,-0.0623,-0.0606,-0.0548,-0.0476,-0.0415,-0.0475,-0.0366,-0.0362,-0.0291,-0.0227,-0.0187,-0.0052,-0.0296,-0.0294,-0.0293,0,-0.1245,-0.1254,-0.1242,-0.1214,-0.1195,-0.1155,-0.1087,-0.1027,-0.0927,-0.0886,-0.0811,-0.0746,-0.0646,-0.0618,-0.0462,-0.0509,-0.0423,-0.036,-0.0353,-0.0266,-0.0258,-0.011,-0.0024,0.0117,-0.0277,-0.0278,-0.0279,0,-0.1282,-0.1255,-0.1269,-0.1245,-0.1194,-0.1178,-0.114,-0.1056,-0.1024,-0.0931,-0.091,-0.0786,-0.0724,-0.0607,-0.044,-0.0464,-0.0272,-0.0293,-0.0124,-0.0117,-0.0054,-0.0043,0.0179,-0.0179,-0.0179,-0.0179,-0.018,0,-0.1291,-0.129,-0.1294,-0.129,-0.1302,-0.1239,-0.123,-0.1174,-0.1107,-0.1066,-0.0959,-0.0894,-0.0723,-0.0582,-0.0449,-0.023,-0.0269,-0.0097,-0.0068,-0.0052,-0.0043,0.0103,0.0135,-0.0174,-0.0175,-0.0176,-0.0177,0,-0.1317,-0.1318,-0.133,-0.132,-0.1321,-0.1325,-0.1296,-0.1283,-0.1217,-0.1158,-0.1129,-0.0967,-0.077,-0.0577,-0.0363,-0.023,0.0056,0.0039,0.0067,0.0098,0.0374,0.0402,0.0636,0.0721,0.0241,0.0244,0.0246,0,-0.1328,-0.1347,-0.1373,-0.1394,-0.1394,-0.1398,-0.1399,-0.1342,-0.1312,-0.1183,-0.1147,-0.0955,-0.078,-0.0423,-0.0157,0.012,0.0204,0.0314,0.0286,0.0432,0.0484,0.0492,0.0545,0.0372,0.0375,0.0378,0.038,0,-0.1356,-0.1376,-0.1399,-0.1452,-0.1472,-0.148,-0.1463,-0.1454,-0.1356,-0.1295,-0.1138,-0.0995,-0.0628,-0.0278,0.0085,0.0246,0.0421,0.0381,0.0518,0.0612,0.0648,0.0728,0.0246,0.0405,0.0403,0.0401,0.0399,0.0398,-0.1374,-0.1415,-0.1457,-0.1495,-0.1517,-0.1512,-0.1498,-0.1459,-0.1394,-0.1236,-0.1109,-0.0853,-0.0385,0.014,0.0324,0.0719,0.065,0.082,0.0847,0.0846,0.0926,0.0522,0.0716,0.0715,0.0715,0.0714,0.0714,0,-0.1387,-0.1441,-0.1491,-0.1518,-0.1518,-0.1527,-0.1498,-0.145,-0.1351,-0.1179,-0.1,-0.0459,0.0005,0.0419,0.0962,0.1165,0.1177,0.1255,0.1263,0.1297,0.094,0.0945,0.1215,0.1215,0.1215,0.1215,0.1214,0.1214,-0.1401,-0.1462,-0.1494,-0.1495,-0.1497,-0.147,-0.1439,-0.1368,-0.1235,-0.0912,-0.06,-0.036,0.0239,0.1037,0.1513,0.1554,0.1685,0.1677,0.1751,0.1485,0.1446,0.1407,0.1424,0.179,0.179,0.2094,0.2097,0.21]}],[{"header":{"parameterUnit":"m.s-1","parameterCategory":2,"la1":30.2991,"la2":30.254,"lo1":-89.0895,"lo2":-89.0444,"dy":0.0017,"dx":0.0017,"nx":28,"ny":28,"refTime":"2024-09-26T03:00:00:Z","depth":"2","parameterNumber":2,"parameterNumberName":"U-component_of_CURRENTS"},"data":[0,0,0,0,0,0,0,0,0,0,0,0,0,0,0,0,0,0,0,0,0,0,0,0,0,0,0,0,0,0,0,0,0,0,0,0,0,0,0,0,0,0,0,0,0,0,0,0,0,0,0,0,0,0,0,0,0,0,-0.262,-0.262,0,-0.2642,-0.2642,-0.2643,-0.2633,-0.2632,-0.2632,-0.2631,-0.2538,-0.2536,-0.2534,0,0,0,0,0,0,0,0,0,0,0,0,0,-0.246,-0.2464,-0.262,-0.262,-0.262,-0.2642,-0.2642,-0.2643,-0.2633,-0.2632,-0.2631,-0.2631,-0.2538,-0.2536,-0.2534,0,0,0,0,0,0,0,0,0,0,0,0,0,-0.2513,-0.2465,-0.262,-0.2616,-0.2616,-0.2642,-0.2643,-0.2643,-0.2633,-0.2632,-0.2631,-0.263,-0.2539,-0.2537,-0.2534,-0.254,0,0,-0.2526,-0.2525,0,0,0,0,0,0,0,0,-0.251,-0.2519,-0.2617,-0.2616,-0.2616,-0.2632,-0.2552,-0.2602,-0.2634,-0.2629,-0.2631,-0.263,-0.2558,-0.2554,-0.2565,-0.2536,-0.2532,-0.2526,-0.2524,-0.2523,-0.2522,0,0,0,0,0,0,0,-0.2507,-0.2517,-0.2631,-0.2617,-0.2616,-0.2575,-0.2583,-0.2562,-0.2599,-0.263,-0.2628,-0.2627,-0.2557,-0.2568,-0.2563,-0.2531,-0.2526,-0.2523,-0.2522,-0.2521,-0.2502,-0.2503,0,0,0,0,0,0,-0.2507,-0.2515,-0.263,-0.2631,-0.2557,-0.258,-0.2588,-0.263,-0.2602,-0.2597,-0.2628,-0.2627,-0.2573,-0.2566,-0.2559,-0.2566,-0.2523,-0.252,-0.2519,-0.2501,-0.2502,-0.2503,0,0,0,0,0,0,-0.2505,-0.2519,-0.2629,-0.2568,-0.2579,-0.2584,-0.263,-0.2631,-0.2652,-0.2602,-0.2595,-0.265,-0.2572,-0.2563,-0.2542,-0.2562,-0.2519,-0.2517,-0.2499,-0.2501,-0.2503,-0.2578,0,0,0,0,0,0,-0.2501,-0.2519,-0.2558,-0.2571,-0.2583,-0.2645,-0.2631,-0.2632,-0.2651,-0.265,-0.2618,-0.2608,-0.257,-0.2546,-0.2539,-0.2557,-0.2515,-0.2498,-0.25,-0.2502,-0.2574,-0.2582,-0.2589,0,0,0,0,0,-0.2496,-0.2541,-0.2561,-0.2574,-0.2636,-0.2645,-0.2648,-0.2646,-0.2653,-0.2663,-0.2641,-0.2609,-0.2554,-0.2545,-0.2536,-0.2554,-0.2497,-0.2499,-0.2502,-0.2571,-0.258,-0.2589,0,0,0,0,0,0,-0.2507,-0.2545,-0.2566,-0.2629,-0.2639,-0.2642,-0.2658,-0.2662,-0.266,-0.2654,-0.2618,-0.2607,-0.2598,-0.2569,-0.2559,-0.2556,-0.2523,-0.2524,-0.2578,-0.2587,-0.2594,-0.2615,-0.2513,0,0,0,0,0,-0.2528,-0.2562,-0.2592,-0.2639,-0.2654,-0.2665,-0.2675,-0.2668,-0.2662,-0.2663,-0.2642,-0.2618,-0.2603,-0.2588,-0.2564,-0.2561,-0.2554,-0.2569,-0.2576,-0.2583,-0.2595,-0.2599,-0.2608,-0.2511,-0.2511,-0.2511,0,0,-0.2535,-0.2568,-0.2584,-0.264,-0.2656,-0.2684,-0.2669,-0.2681,-0.2701,-0.2649,-0.267,-0.2641,-0.2609,-0.2603,-0.2598,-0.2579,-0.2611,-0.2586,-0.2591,-0.2601,-0.2603,-0.2612,-0.262,-0.2513,-0.2513,-0.2512,0,0,-0.2553,-0.2613,-0.2641,-0.2666,-0.269,-0.2694,-0.2705,-0.2716,-0.2725,-0.273,-0.2706,-0.269,-0.2667,-0.2649,-0.2638,-0.2674,-0.2651,-0.2669,-0.272,-0.2723,-0.2731,-0.2738,-0.276,-0.2768,-0.2671,-0.2671,-0.2671,0,-0.255,-0.2628,-0.2646,-0.269,-0.2715,-0.2709,-0.2744,-0.2756,-0.2752,-0.2765,-0.2739,-0.2732,-0.2692,-0.2707,-0.2713,-0.2691,-0.2697,-0.2688,-0.2734,-0.274,-0.2746,-0.2766,-0.2775,-0.2675,-0.2675,-0.2674,-0.2674,0,-0.2598,-0.2663,-0.2685,-0.2745,-0.2769,-0.2791,-0.2812,-0.2828,-0.2831,-0.2836,-0.2849,-0.2804,-0.2793,-0.2787,-0.2756,-0.2786,-0.2781,-0.2745,-0.2713,-0.2761,-0.2779,-0.2786,-0.2681,-0.2679,-0.2678,-0.2677,0,0,-0.2572,-0.2687,-0.2704,-0.2728,-0.2802,-0.2801,-0.2865,-0.2899,-0.2931,-0.2922,-0.2962,-0.2934,-0.2906,-0.2893,-0.2857,-0.2862,-0.2901,-0.2826,-0.2824,-0.2852,-0.2933,-0.2743,-0.2732,-0.2875,-0.2876,-0.2877,-0.2935,0,-0.2599,-0.2684,-0.2747,-0.2799,-0.2834,-0.2875,-0.2911,-0.2937,-0.2981,-0.301,-0.2991,-0.2995,-0.2949,-0.2934,-0.2937,-0.2897,-0.2921,-0.289,-0.2879,-0.2879,-0.2707,-0.2733,-0.2522,-0.2538,-0.2942,-0.2943,-0.2944,0,-0.2616,-0.2682,-0.2749,-0.2806,-0.2824,-0.2847,-0.2914,-0.2945,-0.3014,-0.3054,-0.3093,-0.3078,-0.3077,-0.3026,-0.3019,-0.3002,-0.2983,-0.2965,-0.2966,-0.2765,-0.27,-0.2552,-0.2536,-0.2956,-0.2955,-0.2954,-0.2953,0,-0.2539,-0.2658,-0.2701,-0.2734,-0.281,-0.2835,-0.2862,-0.2947,-0.2972,-0.3086,-0.3114,-0.3144,-0.3105,-0.3116,-0.3029,-0.3045,-0.3013,-0.3025,-0.2859,-0.2848,-0.2651,-0.2616,-0.3052,-0.3052,-0.3051,-0.3051,-0.3051,0,-0.251,-0.255,-0.2662,-0.2677,-0.2694,-0.2769,-0.2799,-0.2866,-0.2957,-0.2967,-0.3095,-0.3089,-0.3119,-0.3083,-0.3066,-0.294,-0.3032,-0.2875,-0.2841,-0.2669,-0.2638,-0.2978,-0.2968,-0.3053,-0.3053,-0.3053,-0.3052,0,-0.2402,-0.2492,-0.2522,-0.262,-0.2643,-0.2638,-0.2719,-0.2748,-0.2867,-0.2903,-0.2924,-0.3021,-0.2985,-0.2994,-0.298,-0.2921,-0.2871,-0.2811,-0.2605,-0.2543,-0.2727,-0.2722,-0.27,-0.2693,-0.2688,-0.2683,-0.268,0,-0.2352,-0.2368,-0.244,-0.2452,-0.2497,-0.2532,-0.2549,-0.2673,-0.272,-0.2818,-0.2801,-0.2821,-0.2779,-0.2709,-0.2637,-0.2595,-0.2703,-0.237,-0.235,-0.2718,-0.2689,-0.2691,-0.2693,-0.2156,-0.2148,-0.2142,-0.2137,0,-0.2261,-0.228,-0.2299,-0.2319,-0.2341,-0.236,-0.2408,-0.242,-0.2534,-0.2573,-0.2566,-0.2546,-0.2496,-0.2322,-0.2253,-0.2208,-0.2364,-0.2235,-0.2666,-0.224,-0.2197,-0.2171,-0.2192,-0.208,-0.2085,-0.209,-0.2093,-0.2095,-0.2163,-0.2149,-0.2159,-0.2156,-0.2187,-0.2165,-0.2114,-0.2182,-0.2169,-0.2166,-0.2242,-0.2159,-0.2158,-0.1936,-0.1837,-0.1789,-0.1979,-0.1922,-0.1946,-0.1976,-0.1865,-0.1809,-0.1602,-0.1605,-0.1608,-0.161,-0.1612,0,-0.2009,-0.2025,-0.2013,-0.1977,-0.1926,-0.1999,-0.1992,-0.192,-0.1842,-0.1869,-0.183,-0.1633,-0.1507,-0.1534,-0.1367,-0.1339,-0.1387,-0.129,-0.136,-0.1415,-0.1464,-0.1332,-0.0926,-0.0925,-0.0923,-0.0921,0,0,-0.1934,-0.1862,-0.1851,-0.1715,-0.1703,-0.1579,-0.1533,-0.1471,-0.1453,-0.1355,-0.131,-0.1397,-0.1452,-0.1177,-0.112,-0.0991,-0.12,-0.0942,-0.1486,-0.162,-0.1667,-0.1812,-0.1665,0,0,0,0,0]},{"header":{"parameterUnit":"m.s-1","parameterCategory":2,"la1":30.2991,"la2":30.254,"lo1":-89.0895,"lo2":-89.0444,"dy":0.0017,"dx":0.0017,"nx":28,"ny":28,"refTime":"2024-09-26T03:00:00:Z","depth":"2","parameterNumber":3,"parameterNumberName":"V-component_of_CURRENTS"},"data":[0,0,0,0,0,0,0,0,0,0,0,0,0,0,0,0,0,0,0,0,0,0,0,0,0,0,0,0,0,0,0,0,0,0,0,0,0,0,0,0,0,0,0,0,0,0,0,0,0,0,0,0,0,0,0,0,0,0,0.0077,0.0078,0,0.0063,0.0061,0.006,-0.0013,-0.0013,-0.0013,-0.0014,0.0052,0.0054,0.0056,0,0,0,0,0,0,0,0,0,0,0,0,0,-0.0013,-0.0012,0.0077,0.0079,0.008,0.0063,0.0061,0.006,-0.0013,-0.0013,-0.0013,-0.0014,0.0052,0.0054,0.0056,0,0,0,0,0,0,0,0,0,0,0,0,0,-0.0011,-0.0012,0.0077,0.0054,0.0053,0.0064,0.0061,0.0059,-0.0013,-0.0013,-0.0013,-0.0014,0.0051,0.0054,0.0057,0.0079,0,0,0.0065,0.0067,0,0,0,0,0,0,0,0,-0.0011,-0.001,0.0056,0.0056,0.0055,0.0042,0.0055,0.0076,-0.0013,-0.0006,-0.0014,-0.0014,0.0068,0.0069,0.0041,0.0082,0.0085,0.0066,0.0067,0.0069,0.0069,0,0,0,0,0,0,0,-0.0012,-0.001,0.0054,0.0058,0.0058,0.0028,0.0026,0.0056,0.0021,-0.0007,-0.0008,0.0018,0.0065,0.0038,0.0043,0.0086,0.0065,0.0068,0.007,0.0071,0.0132,0.0132,0,0,0,0,0,0,0.0028,-0.001,0.0055,0.0055,0.004,0.0031,0.0028,0.0032,0.0018,0.002,0.0019,0.0015,0.0034,0.004,0.0045,0.0055,0.0068,0.0071,0.0073,0.0132,0.0132,0.0132,0,0,0,0,0,0,0.0026,0.0033,0.0056,0.0037,0.004,0.0035,0.0038,0.0032,0.0001,0.004,0.0039,-0.0004,0.0034,0.0041,0.0082,0.0058,0.0072,0.0075,0.0132,0.0132,0.0132,0.0087,0,0,0,0,0,0,0.0023,0.0031,0.0019,0.0039,0.0044,0.0049,0.004,0.0033,0.0027,0.0021,0.0021,0.0026,0.0034,0.0078,0.0085,0.0063,0.0077,0.0132,0.0132,0.0132,0.0088,0.0085,0.0082,0,0,0,0,0,0.0019,0.0023,0.0017,0.0025,0.0035,0.0051,0.0046,0.0031,0.0026,0.0001,0.0025,0.0026,0.008,0.0081,0.0089,0.0067,0.0132,0.0132,0.0132,0.009,0.0086,0.0082,0,0,0,0,0,0,-0.0059,0.0019,0.0012,0.0026,0.0032,0.0045,0.0017,0.0031,0.0021,0.0018,0.0043,0.0051,0.0072,0.0086,0.0086,0.0084,0.0099,0.0101,0.0064,0.0061,0.0058,0.0048,0.008,0,0,0,0,0,-0.0068,-0.0053,0.0007,-0.0012,0.0002,0.0006,0.0004,0.0012,0.003,0.002,0.0027,0.0044,0.0076,0.0084,0.0104,0.0117,0.0149,0.0102,0.0099,0.0097,0.0095,0.0132,0.0132,0.0131,0.0131,0.0131,0,0,-0.011,-0.0071,-0.0068,-0.0027,-0.004,-0.0027,-0.0005,-0.0002,0.0003,0.0038,0.0014,0.0041,0.0081,0.0086,0.0095,0.0096,0.0117,0.0096,0.0094,0.0093,0.0131,0.0132,0.0132,0.0131,0.0131,0.0131,0,0,-0.0165,-0.0153,-0.014,-0.0138,-0.0106,-0.0075,-0.0064,-0.0041,-0.0044,-0.0028,-0.0,0.0028,0.004,0.0068,0.0089,0.009,0.0107,0.0075,0.0044,0.0079,0.0079,0.008,0.0132,0.0138,0.0064,0.0064,0.0064,0,-0.0206,-0.0206,-0.0149,-0.0152,-0.0142,-0.0091,-0.0081,-0.0074,-0.0047,-0.0028,-0.0042,0.0006,0.0033,0.0082,0.0063,0.0083,0.0104,0.0053,0.0075,0.0076,0.0077,0.013,0.0137,0.0061,0.0062,0.0062,0.0062,0,-0.0241,-0.0268,-0.0279,-0.0247,-0.0218,-0.0226,-0.0151,-0.015,-0.0127,-0.0097,-0.0061,-0.0024,0.0007,0.0009,0.0031,0.0053,0.0067,0.0074,0.0082,0.0075,0.0131,0.0139,0.0058,0.0059,0.006,0.006,0,0,-0.0322,-0.0282,-0.0331,-0.0333,-0.0267,-0.0257,-0.0218,-0.0154,-0.0149,-0.0124,-0.0113,-0.0059,-0.0037,-0.001,0.0023,0.0039,0.0068,0.0039,0.0042,0.0087,0.0148,0.0191,0.0204,0.0064,0.0064,0.0065,0.0188,0,-0.0394,-0.0419,-0.0355,-0.0408,-0.0402,-0.0326,-0.0296,-0.0232,-0.0188,-0.018,-0.0101,-0.0095,-0.0039,-0.0054,-0.0007,0.0053,0.0083,0.0035,0.0152,0.0156,0.0191,0.0213,0.0189,0.0298,0.0196,0.0197,0.0198,0,-0.047,-0.0487,-0.0498,-0.0472,-0.0462,-0.0454,-0.0398,-0.0362,-0.0281,-0.0259,-0.0197,-0.0152,-0.0079,-0.008,0.0071,0.0031,0.0081,0.0122,0.0128,0.0187,0.0212,0.0287,0.0317,0.0212,0.0211,0.021,0.0209,0,-0.0576,-0.0605,-0.0607,-0.0616,-0.0545,-0.0534,-0.0496,-0.0403,-0.0376,-0.0332,-0.0334,-0.0202,-0.0182,-0.0071,0.0058,0.0044,0.0198,0.02,0.03,0.0305,0.032,0.0325,0.0272,0.0272,0.0272,0.0271,0.0271,0,-0.0662,-0.0721,-0.0683,-0.0715,-0.0735,-0.0643,-0.0635,-0.059,-0.0525,-0.0498,-0.0397,-0.0365,-0.0196,-0.0073,0.0048,0.023,0.0216,0.0308,0.0339,0.0306,0.0308,0.0255,0.0251,0.0276,0.0275,0.0274,0.0273,0,-0.0771,-0.0753,-0.0781,-0.0766,-0.0766,-0.0792,-0.0744,-0.0743,-0.0679,-0.0651,-0.0654,-0.0494,-0.0319,-0.0119,0.0064,0.0206,0.0362,0.041,0.0373,0.0398,0.0449,0.0441,0.0553,0.0555,0.0557,0.0559,0.0561,0,-0.0798,-0.0822,-0.0844,-0.0878,-0.0881,-0.0906,-0.0899,-0.0836,-0.0824,-0.0715,-0.0711,-0.0558,-0.0404,-0.0064,0.0175,0.0436,0.0409,0.054,0.0513,0.0458,0.0478,0.0467,0.0457,0.0525,0.0526,0.0527,0.0528,0,-0.0865,-0.0873,-0.0902,-0.0974,-0.1009,-0.1025,-0.103,-0.1038,-0.0941,-0.0898,-0.0778,-0.0655,-0.0328,-0.0022,0.0299,0.044,0.0512,0.0567,0.0524,0.0452,0.044,0.0456,0.0446,0.0536,0.0535,0.0534,0.0534,0.0533,-0.0915,-0.0966,-0.0997,-0.1064,-0.1103,-0.1122,-0.1121,-0.1101,-0.1055,-0.0929,-0.081,-0.0571,-0.0305,0.0184,0.0393,0.0589,0.0589,0.0645,0.0638,0.0632,0.0601,0.0593,0.0712,0.0713,0.0713,0.0713,0.0713,0,-0.0957,-0.1023,-0.1084,-0.1144,-0.1174,-0.1176,-0.1173,-0.1134,-0.1065,-0.0909,-0.0748,-0.0422,-0.0088,0.018,0.0501,0.0686,0.0651,0.0706,0.0627,0.062,0.0613,0.0577,0.0685,0.0685,0.0685,0.0685,0,0,-0.0992,-0.1066,-0.1097,-0.1171,-0.1207,-0.1214,-0.1198,-0.1127,-0.1006,-0.0825,-0.0626,-0.0365,-0.0041,0.0177,0.0397,0.0554,0.0533,0.0561,0.057,0.0445,0.0435,0.0573,0.051,0,0,0,0,0]}],[{"header":{"parameterUnit":"m.s-1","parameterCategory":2,"la1":30.2991,"la2":30.254,"lo1":-89.0895,"lo2":-89.0444,"dy":0.0017,"dx":0.0017,"nx":28,"ny":28,"refTime":"2024-09-26T03:00:00:Z","depth":"4","parameterNumber":2,"parameterNumberName":"U-component_of_CURRENTS"},"data":[0,0,0,0,0,0,0,0,0,0,0,0,0,0,0,0,0,0,0,0,0,0,0,0,0,0,0,0,0,0,0,0,0,0,0,0,0,0,0,0,0,0,0,0,0,0,0,0,0,0,0,0,0,0,0,0,0,0,-0.104,-0.1041,0,-0.1095,-0.1096,-0.1097,-0.1117,-0.1117,-0.1117,-0.1116,-0.1158,-0.1159,-0.116,0,0,0,0,0,0,0,0,0,0,0,0,0,-0.0986,-0.0986,-0.104,-0.1041,-0.1041,-0.1095,-0.1096,-0.1097,-0.1117,-0.1117,-0.1117,-0.1116,-0.1157,-0.1159,-0.116,0,0,0,0,0,0,0,0,0,0,0,0,0,-0.1022,-0.0987,-0.104,-0.1058,-0.106,-0.1095,-0.1096,-0.1097,-0.1117,-0.1117,-0.1117,-0.1116,-0.1157,-0.1159,-0.116,-0.1177,0,0,-0.1166,-0.1167,0,0,0,0,0,0,0,0,-0.102,-0.1024,-0.1055,-0.1057,-0.106,-0.1099,-0.1092,-0.1123,-0.1117,-0.1095,-0.1116,-0.1116,-0.1137,-0.1141,-0.1151,-0.1179,-0.1181,-0.1166,-0.1167,-0.1168,-0.1169,0,0,0,0,0,0,0,-0.1017,-0.1022,-0.1062,-0.1056,-0.1058,-0.1075,-0.108,-0.1098,-0.1116,-0.1097,-0.1099,-0.1105,-0.1138,-0.115,-0.1153,-0.1181,-0.1166,-0.1168,-0.1169,-0.117,-0.1266,-0.1268,0,0,0,0,0,0,-0.1009,-0.1019,-0.106,-0.1063,-0.1039,-0.1076,-0.1081,-0.1087,-0.1117,-0.1121,-0.1106,-0.1106,-0.1147,-0.115,-0.1154,-0.1221,-0.1168,-0.117,-0.1171,-0.1265,-0.1267,-0.1268,0,0,0,0,0,0,-0.1008,-0.1012,-0.1058,-0.1043,-0.105,-0.1077,-0.1083,-0.1088,-0.1114,-0.1123,-0.1127,-0.1128,-0.1146,-0.1151,-0.1182,-0.1221,-0.1171,-0.1173,-0.1263,-0.1265,-0.1267,-0.1326,0,0,0,0,0,0,-0.1006,-0.1011,-0.1022,-0.1042,-0.105,-0.1087,-0.1084,-0.1089,-0.1117,-0.1119,-0.1144,-0.1147,-0.1147,-0.1179,-0.1184,-0.1223,-0.1174,-0.1261,-0.1264,-0.1267,-0.1322,-0.133,-0.1336,0,0,0,0,0,-0.1004,-0.1009,-0.1022,-0.1028,-0.1061,-0.1088,-0.1095,-0.1113,-0.1119,-0.1135,-0.115,-0.1147,-0.12,-0.1182,-0.1187,-0.1227,-0.126,-0.1263,-0.1267,-0.1319,-0.1328,-0.1336,0,0,0,0,0,0,-0.0987,-0.1012,-0.1027,-0.1039,-0.1069,-0.1092,-0.1104,-0.1124,-0.1151,-0.1154,-0.1162,-0.1166,-0.1208,-0.1208,-0.1188,-0.1263,-0.1231,-0.1236,-0.1269,-0.1278,-0.1285,-0.1279,-0.1176,0,0,0,0,0,-0.099,-0.1004,-0.1033,-0.1047,-0.1058,-0.1088,-0.1105,-0.1124,-0.1146,-0.1158,-0.1182,-0.1203,-0.1225,-0.1242,-0.1259,-0.13,-0.1291,-0.133,-0.1337,-0.1343,-0.1342,-0.1366,-0.1375,-0.1279,-0.1279,-0.1279,0,0,-0.0986,-0.1005,-0.1012,-0.1046,-0.1065,-0.1095,-0.1098,-0.1127,-0.1159,-0.1158,-0.1209,-0.1229,-0.1239,-0.1284,-0.1304,-0.1291,-0.1366,-0.1347,-0.1353,-0.1348,-0.137,-0.1379,-0.1387,-0.1281,-0.1281,-0.128,0,0,-0.0982,-0.1002,-0.1013,-0.1046,-0.1085,-0.1106,-0.1119,-0.1162,-0.1184,-0.1233,-0.1242,-0.1281,-0.1322,-0.1341,-0.1352,-0.1408,-0.1399,-0.1425,-0.1463,-0.1486,-0.1494,-0.1501,-0.1499,-0.1505,-0.1433,-0.1433,-0.1433,0,-0.098,-0.1,-0.1022,-0.1052,-0.1077,-0.1113,-0.1139,-0.1172,-0.1227,-0.1254,-0.1254,-0.1337,-0.1346,-0.14,-0.1421,-0.1425,-0.1429,-0.1429,-0.1495,-0.1501,-0.1507,-0.1504,-0.151,-0.1436,-0.1436,-0.1435,-0.1435,0,-0.0985,-0.1018,-0.1027,-0.1076,-0.1107,-0.1137,-0.1182,-0.1231,-0.1266,-0.1302,-0.1371,-0.1394,-0.1443,-0.1461,-0.1457,-0.1519,-0.1504,-0.1497,-0.1471,-0.152,-0.1514,-0.1519,-0.1441,-0.144,-0.1439,-0.1438,0,0,-0.0941,-0.1014,-0.1021,-0.1065,-0.1125,-0.1158,-0.121,-0.1269,-0.1329,-0.1379,-0.1448,-0.1487,-0.1515,-0.1528,-0.1545,-0.157,-0.1614,-0.1559,-0.1559,-0.1553,-0.1656,-0.1584,-0.1582,-0.1626,-0.1627,-0.1628,-0.1633,0,-0.0941,-0.0993,-0.1029,-0.1101,-0.1136,-0.1197,-0.1252,-0.1319,-0.1377,-0.146,-0.149,-0.1558,-0.1536,-0.1581,-0.1599,-0.1621,-0.1631,-0.1612,-0.1612,-0.1612,-0.1539,-0.1587,-0.1633,-0.1637,-0.1638,-0.1639,-0.164,0,-0.0931,-0.0976,-0.1021,-0.1138,-0.1158,-0.1217,-0.1326,-0.1388,-0.1492,-0.1534,-0.1598,-0.1631,-0.1685,-0.1659,-0.1692,-0.1686,-0.167,-0.167,-0.167,-0.1584,-0.155,-0.1579,-0.1648,-0.1648,-0.1647,-0.1646,-0.1646,0,-0.0891,-0.0981,-0.1016,-0.1052,-0.1171,-0.1229,-0.1313,-0.1421,-0.1483,-0.1602,-0.1659,-0.1711,-0.1761,-0.1755,-0.1756,-0.1731,-0.1788,-0.1747,-0.1657,-0.1651,-0.1687,-0.1679,-0.1753,-0.1753,-0.1753,-0.1753,-0.1753,0,-0.0873,-0.0922,-0.1017,-0.1056,-0.1144,-0.1238,-0.1351,-0.1441,-0.156,-0.1649,-0.1708,-0.177,-0.1791,-0.1827,-0.1793,-0.1752,-0.1812,-0.1667,-0.1654,-0.171,-0.1706,-0.169,-0.1682,-0.1754,-0.1753,-0.1753,-0.1753,0,-0.0821,-0.0875,-0.0956,-0.1086,-0.1132,-0.1212,-0.1381,-0.1462,-0.158,-0.17,-0.1739,-0.1828,-0.1862,-0.1871,-0.1879,-0.1799,-0.1771,-0.1738,-0.1808,-0.1799,-0.1597,-0.1593,-0.1608,-0.1606,-0.1604,-0.1602,-0.16,0,-0.08,-0.0813,-0.0959,-0.1022,-0.1093,-0.1218,-0.1299,-0.145,-0.154,-0.1725,-0.1776,-0.1859,-0.1898,-0.1837,-0.185,-0.1783,-0.175,-0.1716,-0.1631,-0.1599,-0.1586,-0.1585,-0.1583,-0.1597,-0.1597,-0.1596,-0.1596,0,-0.0721,-0.0764,-0.0831,-0.0976,-0.1081,-0.1192,-0.1343,-0.1391,-0.1569,-0.1677,-0.1758,-0.1768,-0.1808,-0.1778,-0.1758,-0.1706,-0.173,-0.1694,-0.1696,-0.1615,-0.1586,-0.1575,-0.1576,-0.1589,-0.159,-0.159,-0.1591,0,-0.068,-0.0698,-0.0779,-0.0919,-0.1044,-0.1152,-0.1242,-0.1353,-0.1442,-0.1644,-0.1667,-0.1744,-0.1818,-0.1742,-0.173,-0.1676,-0.1608,-0.1522,-0.1531,-0.1539,-0.1512,-0.1466,-0.1426,0,0,0,0,0,-0.0637,-0.0636,-0.0721,-0.0882,-0.1008,-0.1084,-0.1253,-0.1339,-0.1503,-0.1522,-0.1592,-0.1623,-0.1602,-0.1631,-0.1546,-0.1667,-0.1605,-0.1562,-0.1511,-0.1551,-0.1559,-0.1531,0,0,0,0,0,0,-0.0607,-0.0638,-0.0672,-0.0787,-0.0894,-0.1025,-0.1129,-0.1246,-0.1272,-0.1425,-0.1412,-0.1512,-0.1498,-0.1612,-0.1505,-0.1511,-0.1444,-0.1603,-0.1598,-0.1546,-0.1553,-0.156,-0.1534,0,0,0,0,0]},{"header":{"parameterUnit":"m.s-1","parameterCategory":2,"la1":30.2991,"la2":30.254,"lo1":-89.0895,"lo2":-89.0444,"dy":0.0017,"dx":0.0017,"nx":28,"ny":28,"refTime":"2024-09-26T03:00:00:Z","depth":"4","parameterNumber":3,"parameterNumberName":"V-component_of_CURRENTS"},"data":[0,0,0,0,0,0,0,0,0,0,0,0,0,0,0,0,0,0,0,0,0,0,0,0,0,0,0,0,0,0,0,0,0,0,0,0,0,0,0,0,0,0,0,0,0,0,0,0,0,0,0,0,0,0,0,0,0,0,0.0037,0.0037,0,0.0048,0.0048,0.0048,0.009,0.0091,0.0092,0.0093,0.0143,0.0143,0.0144,0,0,0,0,0,0,0,0,0,0,0,0,0,0.0093,0.0091,0.0037,0.0037,0.0037,0.0048,0.0048,0.0048,0.009,0.0091,0.0092,0.0093,0.0142,0.0143,0.0144,0,0,0,0,0,0,0,0,0,0,0,0,0,0.0084,0.0091,0.0037,0.0058,0.006,0.0048,0.0048,0.0049,0.009,0.0091,0.0093,0.0094,0.0142,0.0143,0.0144,0.0125,0,0,0.0146,0.0147,0,0,0,0,0,0,0,0,0.0084,0.0082,0.0055,0.0057,0.0059,0.0068,0.0086,0.0075,0.009,0.008,0.0093,0.0094,0.0119,0.0122,0.0123,0.0127,0.0129,0.0147,0.0147,0.0147,0.0148,0,0,0,0,0,0,0,0.0085,0.0082,0.0043,0.0055,0.0057,0.008,0.008,0.0084,0.0095,0.0081,0.0084,0.0082,0.0121,0.0122,0.0125,0.013,0.0147,0.0147,0.0148,0.0148,0.0167,0.0167,0,0,0,0,0,0,0.0076,0.0082,0.0043,0.0043,0.0073,0.0078,0.0078,0.0065,0.0094,0.0099,0.0081,0.0084,0.012,0.0124,0.0127,0.0131,0.0147,0.0148,0.0149,0.0167,0.0167,0.0167,0,0,0,0,0,0,0.0077,0.0072,0.0042,0.0063,0.006,0.0075,0.006,0.0064,0.0071,0.0093,0.0099,0.0084,0.0121,0.0125,0.0134,0.0133,0.0149,0.0149,0.0167,0.0167,0.0167,0.0124,0,0,0,0,0,0,0.0079,0.0072,0.0063,0.0061,0.0059,0.0027,0.0059,0.0064,0.0067,0.0071,0.0097,0.0103,0.0122,0.0132,0.0135,0.0134,0.015,0.0167,0.0167,0.0167,0.0126,0.0123,0.012,0,0,0,0,0,0.008,0.0052,0.0062,0.0058,0.0044,0.0026,0.0027,0.0044,0.0066,0.0057,0.0084,0.0103,0.0135,0.0132,0.0135,0.0135,0.0167,0.0167,0.0167,0.0127,0.0123,0.012,0,0,0,0,0,0,0.0074,0.0053,0.0065,0.0034,0.003,0.0033,0.0024,0.004,0.0053,0.0062,0.0094,0.01,0.0108,0.0126,0.0123,0.0143,0.0157,0.0158,0.0126,0.0123,0.012,0.0122,0.0151,0,0,0,0,0,0.0067,0.0039,0.0034,0.0011,0.0006,0.0018,0.0015,0.0026,0.0035,0.0042,0.0063,0.0089,0.0108,0.0119,0.0132,0.0135,0.0174,0.0141,0.0138,0.0136,0.0141,0.0208,0.0212,0.0167,0.0167,0.0167,0,0,0.0059,0.0044,0.0031,0.0008,0.0008,-0.0013,0.0019,0.0006,0.0,0.0044,0.0045,0.0074,0.0105,0.0113,0.012,0.013,0.0165,0.0136,0.0133,0.014,0.0209,0.0213,0.0217,0.0167,0.0167,0.0167,0,0,0.002,0.0015,-0.0021,-0.003,-0.004,-0.0036,-0.0041,-0.0039,-0.0025,-0.0025,0.0014,0.0045,0.0059,0.0092,0.0109,0.0099,0.0145,0.0104,0.0095,0.016,0.0165,0.0169,0.0208,0.0217,0.0107,0.0107,0.0107,0,0.0016,-0.0029,-0.0031,-0.0064,-0.0072,-0.005,-0.0078,-0.0071,-0.0061,-0.0041,-0.0031,0.0032,0.0051,0.0089,0.0087,0.0093,0.0133,0.0102,0.0157,0.0163,0.0168,0.0208,0.0217,0.0105,0.0105,0.0106,0.0106,0,-0.0048,-0.0076,-0.0099,-0.0132,-0.0142,-0.0163,-0.0156,-0.0153,-0.0129,-0.0101,-0.0059,-0.0018,0.0029,0.0039,0.0056,0.0107,0.0122,0.0142,0.0165,0.017,0.0211,0.0222,0.0102,0.0103,0.0104,0.0104,0,0,-0.007,-0.0132,-0.0138,-0.0154,-0.0175,-0.0189,-0.0202,-0.0192,-0.0175,-0.0142,-0.0107,-0.0064,-0.0011,0.0013,0.0054,0.0109,0.0168,0.0139,0.0143,0.0176,0.0302,0.0264,0.0273,0.0205,0.0207,0.0209,0.0309,0,-0.0111,-0.0189,-0.0202,-0.025,-0.0281,-0.0263,-0.0272,-0.0253,-0.0219,-0.018,-0.0105,-0.006,-0.0029,0.0004,0.0064,0.0144,0.0198,0.0138,0.0294,0.0298,0.0264,0.0285,0.0215,0.0317,0.032,0.0322,0.0323,0,-0.0161,-0.0207,-0.0274,-0.0299,-0.0308,-0.0327,-0.0313,-0.0314,-0.0253,-0.0219,-0.0147,-0.0084,-0.0,0.0025,0.0177,0.014,0.0216,0.0278,0.0284,0.0275,0.0282,0.0317,0.0344,0.0342,0.0341,0.0339,0.0338,0,-0.0177,-0.0243,-0.0296,-0.031,-0.0345,-0.0353,-0.0354,-0.0318,-0.0309,-0.0229,-0.0205,-0.0086,-0.0032,0.0092,0.0207,0.0206,0.037,0.0386,0.0424,0.0422,0.0445,0.0439,0.0499,0.0499,0.0498,0.0498,0.0498,0,-0.0211,-0.0245,-0.0308,-0.0336,-0.0376,-0.0375,-0.0385,-0.0367,-0.0329,-0.0317,-0.0215,-0.0175,-0.0009,0.0097,0.0211,0.0343,0.0379,0.0429,0.0453,0.042,0.0411,0.0452,0.0445,0.0502,0.0501,0.05,0.05,0,-0.0218,-0.0263,-0.0325,-0.0377,-0.0392,-0.0415,-0.0435,-0.0436,-0.0391,-0.0376,-0.0353,-0.023,-0.009,0.0063,0.0258,0.0333,0.0472,0.0509,0.0445,0.0463,0.0481,0.0471,0.0575,0.0574,0.0574,0.0574,0.0574,0,-0.0233,-0.0269,-0.036,-0.041,-0.0437,-0.0473,-0.05,-0.0474,-0.0479,-0.0415,-0.0411,-0.0274,-0.0185,0.0072,0.0232,0.045,0.0473,0.0538,0.0529,0.048,0.0493,0.0483,0.0473,0.0573,0.0573,0.0573,0.0573,0,-0.0242,-0.0277,-0.0332,-0.0455,-0.0509,-0.0564,-0.0595,-0.0602,-0.0573,-0.0535,-0.0442,-0.03,-0.0149,0.0059,0.022,0.0375,0.0497,0.0536,0.0538,0.053,0.0479,0.049,0.0481,0.0572,0.0572,0.0572,0.0572,0,-0.0248,-0.0294,-0.0385,-0.0491,-0.0569,-0.0639,-0.0648,-0.0641,-0.0627,-0.0549,-0.0519,-0.0333,-0.0214,0.002,0.0171,0.0316,0.0357,0.04,0.041,0.0413,0.033,0.0239,0.0287,0,0,0,0,0,-0.025,-0.0314,-0.0418,-0.0544,-0.0626,-0.0674,-0.0709,-0.0706,-0.0677,-0.0619,-0.0566,-0.0419,-0.0171,-0.0043,0.0098,0.0149,0.0362,0.0316,0.0412,0.0567,0.0568,0.0494,0,0,0,0,0,0,-0.0261,-0.0337,-0.0417,-0.0561,-0.0653,-0.0738,-0.0761,-0.0747,-0.0697,-0.0639,-0.0491,-0.0403,-0.0148,-0.0255,0.0095,0.014,0.0216,0.0443,0.0446,0.0566,0.0567,0.0568,0.0492,0,0,0,0,0]}]]